Change the Weather History Date:

Saturday, January 19, 2013

  Actual Average Record
Temperature  
Mean Temperature 19 °F 13 °F  
Max Temperature 38 °F 23 °F 48 °F (1942)
Min Temperature 0 °F 3 °F -29 °F (1985)
Degree Days  
Heating Degree Days 46 52  
Month to date heating degree days 875 988  
Since 1 July heating degree days 4250 4327  
Cooling Degree Days 0 0  
Month to date cooling degree days 0 0  
Year to date cooling degree days 0 0  
Moisture  
Dew Point 14 °F    
Average Humidity 73    
Maximum Humidity 84    
Minimum Humidity 61    
Precipitation  
Precipitation 0.02 in 0.01 in 0.80 in (1937)
Month to date precipitation 0.20 0.29  
Year to date precipitation 0.20 0.29  
Snow  
Snow 0.00 in - - ()
Month to date snowfall 0.5  
Since 1 July snowfall 9.5  
Snow Depth 0.00 in    
Sea Level Pressure  
Sea Level Pressure 30.05 in    
Wind  
Wind Speed 23 mph (NNW)    
Max Wind Speed 43 mph    
Max Gust Speed 53 mph    
T = Trace of Precipitation, MM = Missing Value Source: NWS Daily Summary

Daily Weather History Graph

Daily Weather History Graph

Search for Another Location

Airport or City:

Trip Planner

Search our weather history database for the weather conditions in past years. The results will help you decide how hot, cold, wet, or windy it might be!

Date:

Astronomy

Jan. 19, 2013 Rise Set
Actual Time 8:01 AM CST 5:16 PM CST
Civil Twilight 7:29 AM CST 5:49 PM CST
Nautical Twilight 6:52 AM CST 6:25 PM CST
Astronomical Twilight 6:17 AM CST 7:00 PM CST
Moon 11:46 AM CST (1/19) 1:32 AM CST (1/19)
Length of Visible Light 10h 19m
Length of Day
9h 14m
First Quarter, 57% of the Moon is Illuminated
Jan 19
First Quarter
Jan 26
Full
Feb 3
Last Quarter
Feb 10
New
Feb 17
First Quarter

Hourly Weather History & Observations

Time (CST) Temp. Windchill Dew Point Humidity Pressure Visibility Wind Dir Wind Speed Gust Speed Precip Events Conditions
12:56 AM 37.9 °F 32.1 °F 28.9 °F 70% 29.71 in - West 8.1 mph - N/A   Unknown
1:56 AM 37.9 °F 28.5 °F 28.9 °F 70% 29.73 in - NNW 17.3 mph 25.3 mph N/A   Unknown
2:56 AM 35.1 °F 28.6 °F 28.0 °F 76% 29.74 in - North 8.1 mph - N/A   Unknown
3:56 AM 36.0 °F 26.7 °F 28.0 °F 73% 29.73 in - NW 15.0 mph - N/A   Unknown
4:56 AM 37.0 °F 28.9 °F 28.0 °F 70% 29.73 in - NW 12.7 mph - N/A   Unknown
5:56 AM 37.0 °F 28.5 °F 28.0 °F 70% 29.76 in - NNW 13.8 mph - N/A   Unknown
6:56 AM 37.0 °F 27.7 °F 28.9 °F 73% 29.79 in - NW 16.1 mph - N/A   Unknown
7:56 AM 37.0 °F 26.4 °F 28.9 °F 73% 29.80 in - NW 20.7 mph - N/A   Unknown
8:56 AM 37.0 °F 25.4 °F 30.0 °F 76% 29.83 in - NNW 25.3 mph 35.7 mph N/A   Unknown
9:56 AM 37.0 °F 26.2 °F 30.0 °F 76% 29.86 in - NW 21.9 mph 29.9 mph N/A   Unknown
10:56 AM 35.1 °F 21.8 °F 28.0 °F 76% 29.90 in - North 29.9 mph 38.0 mph N/A   Unknown
11:56 AM 27.0 °F 9.6 °F 23.0 °F 85% 29.99 in - North 35.7 mph 44.9 mph N/A   Unknown
12:56 PM 19.9 °F -0.6 °F 12.0 °F 71% 30.05 in - NNW 38.0 mph 46.0 mph N/A   Unknown
1:56 PM 17.1 °F -4.8 °F 7.0 °F 65% 30.09 in - North 39.1 mph 51.8 mph N/A   Unknown
2:56 PM 12.9 °F -8.6 °F 7.0 °F 77% 30.15 in - NNW 31.1 mph 40.3 mph N/A   Unknown
3:56 PM 9.0 °F -14.9 °F -0.9 °F 64% 30.22 in - NNW 34.5 mph 47.2 mph N/A   Unknown
4:56 PM 6.1 °F -16.8 °F -2.0 °F 69% 30.28 in - NNW 27.6 mph 40.3 mph N/A   Unknown
5:56 PM 5.0 °F -19.4 °F -0.9 °F 76% 30.33 in - NNW 31.1 mph 38.0 mph N/A   Unknown
6:56 PM 3.9 °F -20.5 °F -2.9 °F 73% 30.35 in - North 29.9 mph 36.8 mph N/A   Unknown
7:56 PM 3.0 °F -19.3 °F -4.0 °F 73% 30.40 in - NNW 23.0 mph 31.1 mph N/A   Unknown
8:56 PM 1.9 °F -19.8 °F -6.0 °F 69% 30.40 in - North 20.7 mph 27.6 mph 0.02 in   Unknown
9:56 PM 1.0 °F -20.4 °F -7.1 °F 69% 30.43 in - North 19.6 mph 31.1 mph N/A   Unknown
10:56 PM 1.0 °F -19.3 °F -6.0 °F 72% 30.43 in - NNW 17.3 mph - N/A   Unknown
11:56 PM 1.0 °F -20.4 °F -7.1 °F 69% 30.45 in - NNW 19.6 mph - N/A   Unknown